Time,TemperatureF,DewpointF,PressureIn,WindDirection,WindDirectionDegrees,WindSpeedMPH,WindSpeedGustMPH,Humidity,HourlyPrecipIn,Conditions,Clouds,dailyrainin,SoftwareType,DateUTC
2013-05-23 00:01:00,42.0,34.0,30.16,NNE,20,7.0,8.0,71,-99.99,,,-99.99,,2013-05-23 06:01:00,
2013-05-23 00:06:00,42.0,34.0,30.16,North,0,7.0,9.0,74,-99.99,,,-99.99,,2013-05-23 06:06:00,
2013-05-23 00:16:00,41.0,34.0,30.16,NE,40,3.0,8.0,75,-99.99,,,-99.99,,2013-05-23 06:16:00,
2013-05-23 00:21:00,41.0,34.0,30.16,North,350,6.0,8.0,75,-99.99,,,-99.99,,2013-05-23 06:21:00,
2013-05-23 00:26:00,41.0,33.0,30.16,NNE,20,0.0,8.0,75,-99.99,,,-99.99,,2013-05-23 06:26:00,
2013-05-23 00:36:00,41.0,33.0,30.16,NNW,340,7.0,7.0,75,-99.99,,,-99.99,,2013-05-23 06:36:00,
2013-05-23 00:46:00,40.0,33.0,30.16,North,350,7.0,10.0,77,-99.99,,,-99.99,,2013-05-23 06:46:00,
2013-05-23 00:56:00,39.0,33.0,30.16,NNW,340,7.0,9.0,78,-99.99,,,-99.99,,2013-05-23 06:56:00,
2013-05-23 01:01:00,39.0,33.0,30.16,NW,310,4.0,7.0,78,-99.99,,,-99.99,,2013-05-23 07:01:00,
2013-05-23 01:06:00,39.0,33.0,30.16,North,10,6.0,8.0,78,-99.99,,,-99.99,,2013-05-23 07:06:00,
2013-05-23 01:11:00,39.0,33.0,30.16,NW,320,9.0,10.0,80,-99.99,,,-99.99,,2013-05-23 07:11:00,
2013-05-23 01:21:00,38.0,33.0,30.16,WNW,300,10.0,10.0,81,-99.99,,,-99.99,,2013-05-23 07:21:00,
2013-05-23 01:31:00,38.0,33.0,30.16,North,0,7.0,9.0,82,-99.99,,,-99.99,,2013-05-23 07:31:00,
2013-05-23 01:41:00,38.0,33.0,30.16,NNE,20,8.0,8.0,83,-99.99,,,-99.99,,2013-05-23 07:41:00,
2013-05-23 02:01:00,37.0,33.0,30.16,NNW,340,7.0,10.0,84,-99.99,,,-99.99,,2013-05-23 08:01:00,
2013-05-23 02:11:00,37.0,33.0,30.15,NNE,20,6.0,7.0,84,-99.99,,,-99.99,,2013-05-23 08:11:00,
2013-05-23 02:16:00,37.0,32.0,30.16,North,350,8.0,9.0,85,-99.99,,,-99.99,,2013-05-23 08:16:00,
2013-05-23 02:21:00,36.0,32.0,30.16,NNE,30,5.0,9.0,85,-99.99,,,-99.99,,2013-05-23 08:21:00,
2013-05-23 02:26:00,36.0,32.0,30.16,NNW,340,7.0,8.0,86,-99.99,,,-99.99,,2013-05-23 08:26:00,
2013-05-23 02:31:00,36.0,32.0,30.16,North,350,4.0,9.0,86,-99.99,,,-99.99,,2013-05-23 08:31:00,
2013-05-23 02:41:00,36.0,32.0,30.16,North,0,7.0,8.0,86,-99.99,,,-99.99,,2013-05-23 08:41:00,
2013-05-23 02:51:00,35.0,32.0,30.16,NNE,20,5.0,7.0,88,-99.99,,,-99.99,,2013-05-23 08:51:00,
2013-05-23 02:56:00,35.0,32.0,30.16,North,0,6.0,7.0,88,-99.99,,,-99.99,,2013-05-23 08:56:00,
2013-05-23 03:01:00,35.0,32.0,30.16,NNE,20,6.0,10.0,88,-99.99,,,-99.99,,2013-05-23 09:01:00,
2013-05-23 03:06:00,36.0,32.0,30.16,NNW,330,6.0,10.0,86,-99.99,,,-99.99,,2013-05-23 09:06:00,
2013-05-23 03:11:00,36.0,32.0,30.16,NNW,340,8.0,8.0,86,-99.99,,,-99.99,,2013-05-23 09:11:00,
2013-05-23 03:16:00,36.0,32.0,30.16,NNE,30,6.0,9.0,86,-99.99,,,-99.99,,2013-05-23 09:16:00,
2013-05-23 03:26:00,35.0,31.0,30.16,NW,320,10.0,10.0,88,-99.99,,,-99.99,,2013-05-23 09:26:00,
2013-05-23 03:36:00,35.0,32.0,30.16,NW,320,8.0,8.0,87,-99.99,,,-99.99,,2013-05-23 09:36:00,
2013-05-23 03:41:00,35.0,32.0,30.16,NNW,330,5.0,9.0,86,-99.99,,,-99.99,,2013-05-23 09:41:00,
2013-05-23 03:51:00,35.0,31.0,30.16,North,0,6.0,8.0,87,-99.99,,,-99.99,,2013-05-23 09:51:00,
2013-05-23 03:56:00,35.0,31.0,30.16,NNE,20,8.0,8.0,88,-99.99,,,-99.99,,2013-05-23 09:56:00,
2013-05-23 04:06:00,34.0,31.0,30.17,North,10,6.0,8.0,89,-99.99,,,-99.99,,2013-05-23 10:06:00,
2013-05-23 04:16:00,34.0,31.0,30.16,NNE,20,6.0,9.0,89,-99.99,,,-99.99,,2013-05-23 10:16:00,
2013-05-23 04:21:00,34.0,31.0,30.16,NNW,340,7.0,8.0,90,-99.99,,,-99.99,,2013-05-23 10:21:00,
2013-05-23 04:26:00,34.0,31.0,30.16,North,0,5.0,8.0,90,-99.99,,,-99.99,,2013-05-23 10:26:00,
2013-05-23 04:31:00,34.0,31.0,30.16,North,0,5.0,7.0,90,-99.99,,,-99.99,,2013-05-23 10:31:00,
2013-05-23 04:36:00,33.0,31.0,30.16,NNE,20,5.0,8.0,91,-99.99,,,-99.99,,2013-05-23 10:36:00,
2013-05-23 04:41:00,33.0,31.0,30.16,NNW,340,6.0,8.0,91,-99.99,,,-99.99,,2013-05-23 10:41:00,
2013-05-23 04:46:00,33.0,31.0,30.16,NNW,340,7.0,8.0,91,-99.99,,,-99.99,,2013-05-23 10:46:00,
2013-05-23 04:56:00,33.0,31.0,30.17,North,0,6.0,10.0,91,-99.99,,,-99.99,,2013-05-23 10:56:00,
2013-05-23 05:01:00,33.0,31.0,30.17,North,350,7.0,10.0,91,-99.99,,,-99.99,,2013-05-23 11:01:00,
2013-05-23 05:06:00,33.0,31.0,30.17,WNW,300,6.0,7.0,91,-99.99,,,-99.99,,2013-05-23 11:06:00,
2013-05-23 05:11:00,32.0,30.0,30.17,NW,320,8.0,8.0,91,-99.99,,,-99.99,,2013-05-23 11:11:00,
2013-05-23 05:16:00,32.0,30.0,30.17,WNW,300,7.0,8.0,92,-99.99,,,-99.99,,2013-05-23 11:16:00,
2013-05-23 05:21:00,32.0,30.0,30.17,NNW,340,7.0,9.0,92,-99.99,,,-99.99,,2013-05-23 11:21:00,
2013-05-23 05:31:00,32.0,30.0,30.18,NE,40,7.0,7.0,93,-99.99,,,-99.99,,2013-05-23 11:31:00,
2013-05-23 05:36:00,32.0,30.0,30.18,North,10,8.0,8.0,93,-99.99,,,-99.99,,2013-05-23 11:36:00,
2013-05-23 05:41:00,32.0,30.0,30.18,NE,40,7.0,9.0,93,-99.99,,,-99.99,,2013-05-23 11:41:00,
2013-05-23 05:51:00,32.0,30.0,30.18,NNE,30,6.0,8.0,93,-99.99,,,-99.99,,2013-05-23 11:51:00,
2013-05-23 05:56:00,32.0,30.0,30.18,North,10,7.0,8.0,93,-99.99,,,-99.99,,2013-05-23 11:56:00,
2013-05-23 06:01:00,32.0,30.0,30.18,North,350,8.0,8.0,93,-99.99,,,-99.99,,2013-05-23 12:01:00,
2013-05-23 06:06:00,32.0,30.0,30.18,North,10,4.0,9.0,93,-99.99,,,-99.99,,2013-05-23 12:06:00,
2013-05-23 06:11:00,32.0,30.0,30.18,NW,320,8.0,9.0,92,-99.99,,,-99.99,,2013-05-23 12:11:00,
2013-05-23 06:16:00,32.0,30.0,30.17,NE,40,7.0,9.0,92,-99.99,,,-99.99,,2013-05-23 12:16:00,
2013-05-23 06:21:00,32.0,30.0,30.18,North,10,8.0,8.0,92,-99.99,,,-99.99,,2013-05-23 12:21:00,
2013-05-23 06:31:00,33.0,31.0,30.19,NW,320,9.0,10.0,92,-99.99,,,-99.99,,2013-05-23 12:31:00,
2013-05-23 06:41:00,34.0,31.0,30.19,NNW,330,7.0,9.0,90,-99.99,,,-99.99,,2013-05-23 12:41:00,
2013-05-23 06:46:00,35.0,32.0,30.19,NW,320,5.0,9.0,88,-99.99,,,-99.99,,2013-05-23 12:46:00,
2013-05-23 06:51:00,36.0,32.0,30.19,WNW,300,5.0,9.0,86,-99.99,,,-99.99,,2013-05-23 12:51:00,
2013-05-23 07:01:00,37.0,34.0,30.19,North,0,5.0,8.0,86,-99.99,,,-99.99,,2013-05-23 13:01:00,
2013-05-23 07:11:00,39.0,34.0,30.19,WNW,290,3.0,9.0,83,-99.99,,,-99.99,,2013-05-23 13:11:00,
2013-05-23 07:21:00,41.0,35.0,30.20,NW,310,0.0,4.0,79,-99.99,,,-99.99,,2013-05-23 13:21:00,
2013-05-23 07:26:00,42.0,35.0,30.20,NW,320,5.0,7.0,77,-99.99,,,-99.99,,2013-05-23 13:26:00,
2013-05-23 07:31:00,43.0,36.0,30.20,NNW,330,7.0,7.0,74,-99.99,,,-99.99,,2013-05-23 13:31:00,
2013-05-23 07:41:00,45.0,35.0,30.20,NNW,330,0.0,5.0,68,-99.99,,,-99.99,,2013-05-23 13:41:00,
2013-05-23 07:46:00,46.0,35.0,30.20,NNW,330,0.0,0.0,65,-99.99,,,-99.99,,2013-05-23 13:46:00,
2013-05-23 07:56:00,47.0,36.0,30.20,NNW,330,0.0,0.0,64,-99.99,,,-99.99,,2013-05-23 13:56:00,
2013-05-23 08:01:00,48.0,36.0,30.20,NE,40,0.0,4.0,63,-99.99,,,-99.99,,2013-05-23 14:01:00,
2013-05-23 08:06:00,48.0,35.0,30.20,NE,40,0.0,0.0,61,-99.99,,,-99.99,,2013-05-23 14:06:00,
2013-05-23 08:16:00,50.0,35.0,30.20,NE,40,0.0,0.0,55,-99.99,,,-99.99,,2013-05-23 14:16:00,
2013-05-23 08:21:00,51.0,35.0,30.20,NE,40,0.0,0.0,53,-99.99,,,-99.99,,2013-05-23 14:21:00,
2013-05-23 08:26:00,53.0,34.0,30.20,NE,40,0.0,0.0,48,-99.99,,,-99.99,,2013-05-23 14:26:00,
2013-05-23 08:36:00,55.0,34.0,30.19,NE,40,0.0,0.0,45,-99.99,,,-99.99,,2013-05-23 14:36:00,
2013-05-23 08:41:00,56.0,34.0,30.19,NE,40,0.0,0.0,44,-99.99,,,-99.99,,2013-05-23 14:41:00,
2013-05-23 08:46:00,57.0,34.0,30.19,East,90,0.0,3.0,42,-99.99,,,-99.99,,2013-05-23 14:46:00,
2013-05-23 08:51:00,57.0,34.0,30.19,East,90,0.0,2.0,42,-99.99,,,-99.99,,2013-05-23 14:51:00,
2013-05-23 09:01:00,56.0,34.0,30.20,East,80,6.0,8.0,43,-99.99,,,-99.99,,2013-05-23 15:01:00,
2013-05-23 09:11:00,57.0,35.0,30.20,East,80,6.0,7.0,43,-99.99,,,-99.99,,2013-05-23 15:11:00,
2013-05-23 09:16:00,58.0,35.0,30.20,ESE,120,5.0,9.0,43,-99.99,,,-99.99,,2013-05-23 15:16:00,
2013-05-23 09:21:00,59.0,34.0,30.20,South,170,10.0,12.0,39,-99.99,,,-99.99,,2013-05-23 15:21:00,
2013-05-23 09:31:00,62.0,33.0,30.20,South,170,6.0,12.0,34,-99.99,,,-99.99,,2013-05-23 15:31:00,
2013-05-23 09:41:00,64.0,33.0,30.20,SSE,150,10.0,11.0,32,-99.99,,,-99.99,,2013-05-23 15:41:00,
2013-05-23 09:46:00,64.0,32.0,30.20,SSE,150,12.0,13.0,29,-99.99,,,-99.99,,2013-05-23 15:46:00,
2013-05-23 09:51:00,65.0,32.0,30.20,SE,130,13.0,13.0,29,-99.99,,,-99.99,,2013-05-23 15:51:00,
2013-05-23 09:56:00,65.0,32.0,30.20,SE,140,8.0,14.0,29,-99.99,,,-99.99,,2013-05-23 15:56:00,
2013-05-23 10:06:00,65.0,31.0,30.20,South,170,10.0,14.0,28,-99.99,,,-99.99,,2013-05-23 16:06:00,
2013-05-23 10:11:00,65.0,30.0,30.20,SE,130,5.0,15.0,26,-99.99,,,-99.99,,2013-05-23 16:11:00,
2013-05-23 10:16:00,65.0,29.0,30.19,SE,140,7.0,16.0,25,-99.99,,,-99.99,,2013-05-23 16:16:00,
2013-05-23 10:21:00,66.0,30.0,30.19,South,170,12.0,16.0,26,-99.99,,,-99.99,,2013-05-23 16:21:00,
2013-05-23 10:26:00,66.0,29.0,30.19,SE,130,14.0,17.0,25,-99.99,,,-99.99,,2013-05-23 16:26:00,
2013-05-23 10:36:00,66.0,27.0,30.19,SSE,150,9.0,11.0,23,-99.99,,,-99.99,,2013-05-23 16:36:00,
2013-05-23 10:46:00,67.0,33.0,30.19,South,170,9.0,14.0,28,-99.99,,,-99.99,,2013-05-23 16:46:00,
2013-05-23 10:51:00,67.0,27.0,30.19,SSE,160,6.0,22.0,22,-99.99,,,-99.99,,2013-05-23 16:51:00,
2013-05-23 11:01:00,68.0,28.0,30.19,West,260,21.0,21.0,22,-99.99,,,-99.99,,2013-05-23 17:01:00,
2013-05-23 11:11:00,68.0,30.0,30.18,South,180,9.0,16.0,24,-99.99,,,-99.99,,2013-05-23 17:11:00,
2013-05-23 11:16:00,68.0,28.0,30.19,South,180,11.0,20.0,22,-99.99,,,-99.99,,2013-05-23 17:16:00,
2013-05-23 11:21:00,68.0,29.0,30.18,SSW,200,7.0,21.0,23,-99.99,,,-99.99,,2013-05-23 17:21:00,
2013-05-23 11:31:00,68.0,28.0,30.18,South,180,19.0,24.0,22,-99.99,,,-99.99,,2013-05-23 17:31:00,
2013-05-23 11:36:00,68.0,30.0,30.18,South,170,16.0,20.0,24,-99.99,,,-99.99,,2013-05-23 17:36:00,
2013-05-23 11:41:00,69.0,29.0,30.18,South,180,10.0,20.0,22,-99.99,,,-99.99,,2013-05-23 17:41:00,
2013-05-23 11:46:00,70.0,32.0,30.18,South,180,9.0,15.0,25,-99.99,,,-99.99,,2013-05-23 17:46:00,
2013-05-23 11:51:00,71.0,31.0,30.17,South,190,12.0,17.0,23,-99.99,,,-99.99,,2013-05-23 17:51:00,
2013-05-23 11:56:00,71.0,30.0,30.17,SSE,160,10.0,18.0,22,-99.99,,,-99.99,,2013-05-23 17:56:00,
2013-05-23 12:06:00,71.0,28.0,30.17,South,190,11.0,26.0,20,-99.99,,,-99.99,,2013-05-23 18:06:00,
2013-05-23 12:11:00,71.0,30.0,30.17,SSE,160,12.0,18.0,22,-99.99,,,-99.99,,2013-05-23 18:11:00,
2013-05-23 12:21:00,72.0,28.0,30.16,SSE,160,3.0,19.0,19,-99.99,,,-99.99,,2013-05-23 18:21:00,
2013-05-23 12:26:00,72.0,29.0,30.16,South,170,9.0,25.0,20,-99.99,,,-99.99,,2013-05-23 18:26:00,
2013-05-23 12:31:00,72.0,26.0,30.16,SSW,200,8.0,24.0,18,-99.99,,,-99.99,,2013-05-23 18:31:00,
2013-05-23 12:41:00,71.0,26.0,30.15,South,180,19.0,19.0,18,-99.99,,,-99.99,,2013-05-23 18:41:00,
2013-05-23 12:51:00,71.0,26.0,30.15,SSE,160,14.0,22.0,18,-99.99,,,-99.99,,2013-05-23 18:51:00,
2013-05-23 13:01:00,72.0,32.0,30.15,SSE,150,13.0,17.0,22,-99.99,,,-99.99,,2013-05-23 19:01:00,
2013-05-23 13:11:00,73.0,27.0,30.15,South,180,10.0,22.0,18,-99.99,,,-99.99,,2013-05-23 19:11:00,
2013-05-23 13:21:00,74.0,25.0,30.14,SSW,210,5.0,22.0,16,-99.99,,,-99.99,,2013-05-23 19:21:00,
2013-05-23 13:31:00,74.0,25.0,30.15,SW,220,12.0,30.0,16,-99.99,,,-99.99,,2013-05-23 19:31:00,
2013-05-23 13:36:00,74.0,23.0,30.14,South,170,29.0,31.0,15,-99.99,,,-99.99,,2013-05-23 19:36:00,
2013-05-23 13:46:00,75.0,26.0,30.15,South,170,18.0,35.0,16,-99.99,,,-99.99,,2013-05-23 19:46:00,
2013-05-23 13:51:00,75.0,23.0,30.15,SSE,150,16.0,38.0,15,-99.99,,,-99.99,,2013-05-23 19:51:00,
2013-05-23 13:56:00,75.0,23.0,30.14,South,190,17.0,33.0,14,-99.99,,,-99.99,,2013-05-23 19:56:00,
2013-05-23 14:01:00,75.0,22.0,30.14,South,190,19.0,27.0,14,-99.99,,,-99.99,,2013-05-23 20:01:00,
2013-05-23 14:11:00,75.0,22.0,30.14,SW,230,19.0,30.0,14,-99.99,,,-99.99,,2013-05-23 20:11:00,
2013-05-23 14:21:00,75.0,21.0,30.14,SSW,200,22.0,30.0,13,-99.99,,,-99.99,,2013-05-23 20:21:00,
2013-05-23 14:31:00,75.0,23.0,30.14,South,170,23.0,32.0,14,-99.99,,,-99.99,,2013-05-23 20:31:00,
2013-05-23 14:41:00,75.0,24.0,30.14,South,180,18.0,29.0,15,-99.99,,,-99.99,,2013-05-23 20:41:00,
2013-05-23 14:46:00,75.0,19.0,30.14,South,190,23.0,30.0,12,-99.99,,,-99.99,,2013-05-23 20:46:00,
2013-05-23 14:56:00,76.0,24.0,30.13,South,180,32.0,32.0,15,-99.99,,,-99.99,,2013-05-23 20:56:00,
2013-05-23 15:01:00,76.0,25.0,30.13,South,180,16.0,31.0,15,-99.99,,,-99.99,,2013-05-23 21:01:00,
2013-05-23 15:06:00,76.0,22.0,30.13,SSE,160,14.0,33.0,13,-99.99,,,-99.99,,2013-05-23 21:06:00,
2013-05-23 15:11:00,76.0,22.0,30.13,South,190,23.0,25.0,13,-99.99,,,-99.99,,2013-05-23 21:11:00,
2013-05-23 15:16:00,75.0,23.0,30.13,SSW,210,13.0,22.0,14,-99.99,,,-99.99,,2013-05-23 21:16:00,
2013-05-23 15:26:00,73.0,20.0,30.13,South,190,17.0,26.0,14,-99.99,,,-99.99,,2013-05-23 21:26:00,
2013-05-23 15:31:00,73.0,19.0,30.12,South,180,22.0,24.0,13,-99.99,,,-99.99,,2013-05-23 21:31:00,
2013-05-23 15:36:00,73.0,21.0,30.12,SSE,150,23.0,30.0,14,-99.99,,,-99.99,,2013-05-23 21:36:00,
2013-05-23 15:46:00,73.0,22.0,30.12,South,170,17.0,26.0,15,-99.99,,,-99.99,,2013-05-23 21:46:00,
2013-05-23 15:56:00,72.0,22.0,30.13,SSW,200,12.0,25.0,15,-99.99,,,-99.99,,2013-05-23 21:56:00,
2013-05-23 16:01:00,72.0,22.0,30.12,SSW,210,16.0,26.0,15,-99.99,,,-99.99,,2013-05-23 22:01:00,
2013-05-23 16:11:00,71.0,22.0,30.13,SSW,200,13.0,21.0,16,-99.99,,,-99.99,,2013-05-23 22:11:00,
2013-05-23 16:16:00,71.0,23.0,30.13,South,190,13.0,21.0,17,-99.99,,,-99.99,,2013-05-23 22:16:00,
2013-05-23 16:26:00,70.0,22.0,30.13,SSW,200,9.0,14.0,16,-99.99,,,-99.99,,2013-05-23 22:26:00,
2013-05-23 16:31:00,71.0,21.0,30.12,South,170,8.0,23.0,15,-99.99,,,-99.99,,2013-05-23 22:31:00,
2013-05-23 16:36:00,72.0,21.0,30.13,SSW,200,15.0,27.0,14,-99.99,,,-99.99,,2013-05-23 22:36:00,
2013-05-23 16:41:00,72.0,19.0,30.12,South,180,20.0,26.0,13,-99.99,,,-99.99,,2013-05-23 22:41:00,
2013-05-23 16:46:00,71.0,18.0,30.12,South,180,19.0,26.0,13,-99.99,,,-99.99,,2013-05-23 22:46:00,
2013-05-23 16:56:00,70.0,20.0,30.12,SW,230,23.0,23.0,15,-99.99,,,-99.99,,2013-05-23 22:56:00,
2013-05-23 17:01:00,70.0,22.0,30.13,South,190,10.0,26.0,16,-99.99,,,-99.99,,2013-05-23 23:01:00,
2013-05-23 17:06:00,70.0,21.0,30.13,South,180,15.0,20.0,16,-99.99,,,-99.99,,2013-05-23 23:06:00,
2013-05-23 17:11:00,69.0,22.0,30.13,South,180,15.0,24.0,16,-99.99,,,-99.99,,2013-05-23 23:11:00,
2013-05-23 17:21:00,70.0,21.0,30.13,SSW,210,9.0,18.0,16,-99.99,,,-99.99,,2013-05-23 23:21:00,
2013-05-23 17:31:00,70.0,18.0,30.13,WSW,240,11.0,20.0,14,-99.99,,,-99.99,,2013-05-23 23:31:00,
2013-05-23 17:41:00,70.0,21.0,30.13,SSE,160,12.0,23.0,16,-99.99,,,-99.99,,2013-05-23 23:41:00,
2013-05-23 17:46:00,70.0,20.0,30.13,South,170,10.0,16.0,15,-99.99,,,-99.99,,2013-05-23 23:46:00,
2013-05-23 17:51:00,70.0,21.0,30.13,South,190,14.0,23.0,15,-99.99,,,-99.99,,2013-05-23 23:51:00,
2013-05-23 17:56:00,69.0,21.0,30.13,SSW,210,10.0,17.0,16,-99.99,,,-99.99,,2013-05-23 23:56:00,
2013-05-23 18:06:00,69.0,23.0,30.12,South,190,13.0,19.0,17,-99.99,,,-99.99,,2013-05-24 00:06:00,
2013-05-23 18:11:00,69.0,21.0,30.12,South,180,13.0,25.0,16,-99.99,,,-99.99,,2013-05-24 00:11:00,
2013-05-23 18:21:00,70.0,23.0,30.12,WSW,240,18.0,18.0,17,-99.99,,,-99.99,,2013-05-24 00:21:00,
2013-05-23 18:26:00,70.0,23.0,30.13,South,180,7.0,20.0,17,-99.99,,,-99.99,,2013-05-24 00:26:00,
2013-05-23 18:36:00,70.0,21.0,30.13,WSW,250,6.0,21.0,16,-99.99,,,-99.99,,2013-05-24 00:36:00,
2013-05-23 18:41:00,70.0,24.0,30.13,South,170,10.0,11.0,17,-99.99,,,-99.99,,2013-05-24 00:41:00,
2013-05-23 18:51:00,70.0,21.0,30.12,WSW,250,13.0,13.0,16,-99.99,,,-99.99,,2013-05-24 00:51:00,
2013-05-23 18:56:00,69.0,20.0,30.12,West,260,6.0,14.0,15,-99.99,,,-99.99,,2013-05-24 00:56:00,
2013-05-23 19:01:00,69.0,22.0,30.12,WSW,240,2.0,11.0,17,-99.99,,,-99.99,,2013-05-24 01:01:00,
2013-05-23 19:06:00,68.0,23.0,30.13,WSW,250,3.0,5.0,18,-99.99,,,-99.99,,2013-05-24 01:06:00,
2013-05-23 19:16:00,67.0,22.0,30.13,SSW,210,8.0,12.0,18,-99.99,,,-99.99,,2013-05-24 01:16:00,
2013-05-23 19:21:00,67.0,25.0,30.13,SSW,210,13.0,14.0,20,-99.99,,,-99.99,,2013-05-24 01:21:00,
2013-05-23 19:26:00,66.0,23.0,30.14,SSW,210,10.0,14.0,19,-99.99,,,-99.99,,2013-05-24 01:26:00,
2013-05-23 19:36:00,65.0,23.0,30.14,SW,230,8.0,11.0,20,-99.99,,,-99.99,,2013-05-24 01:36:00,
2013-05-23 19:41:00,65.0,24.0,30.14,SW,230,10.0,12.0,21,-99.99,,,-99.99,,2013-05-24 01:41:00,
2013-05-23 19:46:00,65.0,24.0,30.14,SSW,210,6.0,10.0,22,-99.99,,,-99.99,,2013-05-24 01:46:00,
2013-05-23 19:56:00,64.0,25.0,30.14,SW,220,5.0,7.0,23,-99.99,,,-99.99,,2013-05-24 01:56:00,
2013-05-23 20:06:00,62.0,26.0,30.15,South,190,0.0,6.0,26,-99.99,,,-99.99,,2013-05-24 02:06:00,
2013-05-23 20:11:00,61.0,28.0,30.15,SSW,200,6.0,8.0,29,-99.99,,,-99.99,,2013-05-24 02:11:00,
2013-05-23 20:16:00,59.0,27.0,30.15,West,260,6.0,10.0,29,-99.99,,,-99.99,,2013-05-24 02:16:00,
2013-05-23 20:21:00,59.0,26.0,30.15,SSW,210,0.0,8.0,28,-99.99,,,-99.99,,2013-05-24 02:21:00,
2013-05-23 20:31:00,59.0,24.0,30.15,WSW,250,0.0,7.0,25,-99.99,,,-99.99,,2013-05-24 02:31:00,
2013-05-23 20:41:00,59.0,23.0,30.15,SSE,160,6.0,15.0,25,-99.99,,,-99.99,,2013-05-24 02:41:00,
2013-05-23 20:51:00,59.0,25.0,30.16,SSE,160,7.0,7.0,27,-99.99,,,-99.99,,2013-05-24 02:51:00,
2013-05-23 21:06:00,58.0,25.0,30.16,SE,130,0.0,12.0,28,-99.99,,,-99.99,,2013-05-24 03:06:00,
2013-05-23 21:11:00,58.0,24.0,30.16,ESE,120,0.0,6.0,27,-99.99,,,-99.99,,2013-05-24 03:11:00,
2013-05-23 21:16:00,57.0,24.0,30.16,ESE,110,0.0,3.0,28,-99.99,,,-99.99,,2013-05-24 03:16:00,
2013-05-23 21:26:00,56.0,24.0,30.16,ESE,110,0.0,0.0,29,-99.99,,,-99.99,,2013-05-24 03:26:00,
2013-05-23 21:31:00,56.0,24.0,30.16,ESE,110,0.0,0.0,30,-99.99,,,-99.99,,2013-05-24 03:31:00,
2013-05-23 21:41:00,55.0,25.0,30.16,ESE,110,0.0,0.0,32,-99.99,,,-99.99,,2013-05-24 03:41:00,
2013-05-23 21:46:00,54.0,25.0,30.16,ESE,110,0.0,0.0,31,-99.99,,,-99.99,,2013-05-24 03:46:00,
2013-05-23 21:56:00,55.0,26.0,30.17,SSE,150,0.0,6.0,34,-99.99,,,-99.99,,2013-05-24 03:56:00,
2013-05-23 22:01:00,54.0,27.0,30.17,SSE,150,0.0,0.0,36,-99.99,,,-99.99,,2013-05-24 04:01:00,
2013-05-23 22:06:00,54.0,27.0,30.18,SSE,150,0.0,0.0,36,-99.99,,,-99.99,,2013-05-24 04:06:00,
2013-05-23 22:11:00,53.0,27.0,30.18,SSE,150,0.0,0.0,37,-99.99,,,-99.99,,2013-05-24 04:11:00,
2013-05-23 22:21:00,52.0,27.0,30.19,SSE,150,0.0,0.0,39,-99.99,,,-99.99,,2013-05-24 04:21:00,
2013-05-23 22:26:00,52.0,27.0,30.19,WNW,300,5.0,5.0,39,-99.99,,,-99.99,,2013-05-24 04:26:00,
2013-05-23 22:31:00,51.0,28.0,30.19,North,0,8.0,10.0,41,-99.99,,,-99.99,,2013-05-24 04:31:00,
2013-05-23 22:36:00,50.0,28.0,30.19,North,350,8.0,9.0,42,-99.99,,,-99.99,,2013-05-24 04:36:00,
2013-05-23 22:46:00,50.0,29.0,30.19,NNW,340,7.0,7.0,44,-99.99,,,-99.99,,2013-05-24 04:46:00,
2013-05-23 22:51:00,49.0,29.0,30.20,North,0,3.0,9.0,46,-99.99,,,-99.99,,2013-05-24 04:51:00,
2013-05-23 23:01:00,48.0,29.0,30.20,NW,320,8.0,8.0,49,-99.99,,,-99.99,,2013-05-24 05:01:00,
2013-05-23 23:06:00,47.0,29.0,30.20,NNW,330,7.0,9.0,49,-99.99,,,-99.99,,2013-05-24 05:06:00,
2013-05-23 23:16:00,46.0,30.0,30.20,NNW,340,0.0,7.0,53,-99.99,,,-99.99,,2013-05-24 05:16:00,
2013-05-23 23:26:00,45.0,30.0,30.20,NNW,330,0.0,8.0,55,-99.99,,,-99.99,,2013-05-24 05:26:00,
2013-05-23 23:31:00,45.0,31.0,30.20,North,0,3.0,5.0,57,-99.99,,,-99.99,,2013-05-24 05:31:00,
2013-05-23 23:41:00,44.0,31.0,30.20,NNW,330,7.0,7.0,60,-99.99,,,-99.99,,2013-05-24 05:41:00,
2013-05-23 23:46:00,43.0,30.0,30.21,North,0,6.0,9.0,59,-99.99,,,-99.99,,2013-05-24 05:46:00,
2013-05-23 23:51:00,44.0,30.0,30.21,West,280,6.0,9.0,57,-99.99,,,-99.99,,2013-05-24 05:51:00,
2013-05-23 23:56:00,44.0,29.0,30.21,North,0,6.0,8.0,57,-99.99,,,-99.99,,2013-05-24 05:56:00,